Omaha Offutt, NE

4:21 PM CST on January 17, 2018 (GMT -0600)
Offutt Air Force Base

Weather History for KOFF - September, 2013

Change the Weather History Date:

Sunday, September 1, 2013

  Actual Average Record
Temperature  
Mean Temperature 74 °F -  
Max Temperature 83 °F 82 °F 95 °F (2011)
Min Temperature 65 °F 62 °F 53 °F (2005)
Cooling Degree Days 8    
Growing Degree Days 24 (Base 50)    
Moisture  
Dew Point 66 °F    
Average Humidity 82    
Maximum Humidity 100    
Minimum Humidity 43    
Precipitation  
Precipitation 1.17 in - - ()
Sea Level Pressure  
Sea Level Pressure 29.89 in    
Wind  
Wind Speed 10 mph (North)    
Max Wind Speed 38 mph    
Max Gust Speed 50 mph    
Visibility 9 miles    
Events Fog , Rain , Thunderstorm    
Averages and records for this station are not official NWS values.
T = Trace of Precipitation, MM = Missing Value Source: NWS Daily Summary

Daily Weather History Graph

Daily Weather History Graph

Search for Another Location

Airport or City:

Trip Planner

Search our weather history database for the weather conditions in past years. The results will help you decide how hot, cold, wet, or windy it might be!

Date:

Astronomy

Sep. 01, 2013 Rise Set
Actual Time 6:50 AM CDT 7:55 PM CDT
Civil Twilight 6:22 AM CDT 8:24 PM CDT
Nautical Twilight 5:48 AM CDT 8:57 PM CDT
Astronomical Twilight 5:13 AM CDT 9:32 PM CDT
Moon 3:11 AM CDT (9/1) 5:34 PM CDT (9/1)
Length of Visible Light 14h 01m
Length of Day
13h 05m
Waning Crescent, 13% of the Moon is Illuminated
Sep 1
Waning Crescent
Sep 5
New
Sep 12
First Quarter
Sep 19
Full
Sep 26
Last Quarter

Hourly Weather History & Observations

Time (CDT) Temp. Heat Index Dew Point Humidity Pressure Visibility Wind Dir Wind Speed Gust Speed Precip Events Conditions
12:58 AM 70.5 °F - 69.1 °F 95% 29.77 in 10.0 mi South 2.3 mph - N/A   Clear
1:58 AM 69.6 °F - 69.1 °F 98% 29.78 in 10.0 mi Calm Calm - N/A   Partly Cloudy
2:58 AM 72.0 °F - 70.5 °F 95% 29.75 in 10.0 mi Calm Calm - N/A   Clear
3:20 AM 75.2 °F - 68.0 °F 78% 29.86 in 10.0 mi NNW 34.5 mph 49.5 mph N/A   Squalls
3:22 AM 75.2 °F - 69.8 °F 83% 29.88 in 2.5 mi NNW 38.0 mph 49.5 mph N/A Rain Light Rain
3:24 AM 73.4 °F - 69.8 °F 88% 29.86 in 0.5 mi NNW 33.4 mph 49.5 mph N/A Fog , Rain , Thunderstorm Heavy Thunderstorms and Rain
3:26 AM 71.6 °F - 69.8 °F 94% 29.85 in 0.5 mi North 31.1 mph 49.5 mph N/A Fog , Rain , Thunderstorm Heavy Thunderstorms and Rain
3:31 AM 68.0 °F - 68.0 °F 100% 29.83 in 0.2 mi NE 10.4 mph 48.3 mph N/A Fog , Rain , Thunderstorm Heavy Thunderstorms and Rain
3:36 AM 66.2 °F - 66.2 °F 100% 29.83 in 1.2 mi NE 11.5 mph 40.3 mph N/A Rain , Thunderstorm Light Thunderstorms and Rain
3:41 AM 68.0 °F - 66.2 °F 94% 29.83 in 8.0 mi Variable 2.3 mph - N/A Rain , Thunderstorm Light Thunderstorms and Rain
3:45 AM 68.0 °F - 68.0 °F 100% 29.83 in 10.0 mi Variable 2.3 mph - N/A Thunderstorm Thunderstorm
3:49 AM 68.0 °F - 68.0 °F 100% 29.83 in 10.0 mi NNE 5.8 mph - N/A Thunderstorm Partly Cloudy
3:58 AM 67.8 °F - 66.2 °F 95% 29.81 in 10.0 mi ENE 10.4 mph - 1.12 in   Partly Cloudy
4:58 AM 70.0 °F - 69.6 °F 99% 29.81 in 10.0 mi NE 10.4 mph - N/A   Scattered Clouds
5:10 AM 69.8 °F - 69.8 °F 100% 29.86 in 9.0 mi NE 10.4 mph - N/A Rain Light Rain
5:15 AM 69.8 °F - 69.8 °F 100% 29.83 in 9.0 mi East 11.5 mph - N/A Rain Light Rain
5:20 AM 69.8 °F - 69.8 °F 100% 29.85 in 10.0 mi ENE 12.7 mph 19.6 mph N/A Rain Light Rain
5:23 AM 69.8 °F - 69.8 °F 100% 29.84 in 10.0 mi East 11.5 mph 19.6 mph N/A   Partly Cloudy
5:52 AM 69.8 °F - 68.0 °F 94% 29.87 in 10.0 mi ENE 5.8 mph - N/A Thunderstorm Thunderstorm
5:58 AM 69.6 °F - 67.8 °F 94% 29.83 in 10.0 mi ENE 5.8 mph - 0.00 in Thunderstorm Thunderstorm
5:59 AM 69.8 °F - 68.0 °F 94% 29.85 in 10.0 mi ENE 4.6 mph - N/A Rain , Thunderstorm Light Thunderstorms and Rain
6:09 AM 68.0 °F - 68.0 °F 100% 29.88 in 10.0 mi NW 9.2 mph - N/A Rain Light Rain
6:15 AM 68.0 °F - 68.0 °F 100% 29.88 in 10.0 mi NNW 5.8 mph - N/A   Partly Cloudy
6:17 AM 68.0 °F - 68.0 °F 100% 29.88 in 9.0 mi NNW 4.6 mph - N/A Rain Rain
6:27 AM 68.0 °F - 68.0 °F 100% 29.90 in 10.0 mi Variable 1.2 mph - N/A Rain Light Rain
6:31 AM 68.0 °F - 68.0 °F 100% 29.90 in 10.0 mi South 4.6 mph - N/A   Scattered Clouds
6:53 AM 68.0 °F - 68.0 °F 100% 29.92 in 10.0 mi Calm Calm - N/A Rain Light Rain
6:58 AM 68.2 °F - 67.8 °F 99% 29.91 in 10.0 mi Calm Calm - 0.02 in Rain Light Rain
7:03 AM 68.0 °F - 68.0 °F 100% 29.93 in 2.5 mi West 2.3 mph - N/A Rain Light Rain
7:13 AM 68.0 °F - 68.0 °F 100% 29.94 in 7.0 mi Calm Calm - N/A Rain Light Rain
7:15 AM 69.8 °F - 68.0 °F 94% 29.94 in 10.0 mi Calm Calm - N/A Thunderstorm Scattered Clouds
7:58 AM 70.0 °F - 69.4 °F 98% 29.94 in 10.0 mi WNW 6.9 mph - 0.03 in   Scattered Clouds
8:58 AM 73.2 °F - 69.8 °F 89% 29.94 in 10.0 mi WNW 10.4 mph - N/A   Clear
9:58 AM 75.7 °F - 68.0 °F 77% 29.94 in 10.0 mi WNW 10.4 mph - N/A   Clear
10:58 AM 77.7 °F - 64.9 °F 65% 29.94 in 10.0 mi NW 9.2 mph - N/A   Clear
11:58 AM 79.7 °F - 59.7 °F 50% 29.94 in 10.0 mi North 12.7 mph - N/A   Clear
12:58 PM 81.3 °F 81.4 °F 58.3 °F 45% 29.93 in 10.0 mi North 12.7 mph 21.9 mph N/A   Clear
1:58 PM 82.2 °F 82.0 °F 57.6 °F 43% 29.93 in 10.0 mi North 13.8 mph 19.6 mph N/A   Clear
2:32 PM 82.4 °F 82.5 °F 59.0 °F 45% 29.94 in 10.0 mi NW 15.0 mph 24.2 mph N/A   Clear
2:58 PM 82.8 °F 82.8 °F 59.5 °F 45% 29.93 in 10.0 mi NNW 13.8 mph 19.6 mph N/A   Partly Cloudy
3:15 PM 82.4 °F 82.5 °F 59.0 °F 45% 29.94 in 10.0 mi NW 15.0 mph 21.9 mph N/A   Partly Cloudy
3:58 PM 82.8 °F 82.8 °F 59.2 °F 45% 29.92 in 10.0 mi NNW 12.7 mph 19.6 mph N/A   Partly Cloudy
4:24 PM 82.4 °F 82.5 °F 59.0 °F 45% 29.93 in 10.0 mi NW 16.1 mph 23.0 mph N/A   Clear
4:58 PM 82.4 °F 82.5 °F 59.0 °F 45% 29.93 in 10.0 mi NW 11.5 mph 19.6 mph N/A   Partly Cloudy
5:58 PM 81.3 °F 81.7 °F 59.4 °F 47% 29.93 in 10.0 mi North 13.8 mph 20.7 mph N/A   Partly Cloudy
6:58 PM 79.5 °F - 59.2 °F 50% 29.94 in 10.0 mi NNW 8.1 mph - N/A   Partly Cloudy
7:58 PM 75.6 °F - 59.5 °F 57% 29.94 in 10.0 mi North 6.9 mph - N/A   Partly Cloudy
8:58 PM 70.2 °F - 60.3 °F 71% 29.96 in 10.0 mi NNW 6.9 mph - N/A   Clear
9:58 PM 66.2 °F - 60.4 °F 82% 29.98 in 10.0 mi NW 5.8 mph - N/A   Clear
10:58 PM 65.7 °F - 60.8 °F 84% 30.00 in 10.0 mi NW 3.5 mph - N/A   Clear
11:58 PM 68.2 °F - 60.6 °F 77% 29.99 in 10.0 mi WNW 4.6 mph - N/A   Clear